Regional Weather Roundup
Issued by NWS Upton, NY

Home | Current Version | Previous Version | Text Only | Print | Product List | Glossary On
Versions: 1 2 3 4 5 6 7 8 9 10 11 12 13 14 15 16 17 18 19 20 21 22 23 24 25 26 27 28 29 30 31 32 33 34 35 36 37 38 39 40 41 42 43 44 45 46 47 48 49 50
000
ASUS41 KOKX 240109
RWROKX

REGIONAL WEATHER ROUNDUP
NATIONAL WEATHER SERVICE NEW YORK NY
900 PM EDT FRI JUN 23 2017

NOTE: "FAIR" INDICATES FEW OR NO CLOUDS BELOW 12,000 FEET WITH NO
SIGNIFICANT WEATHER AND/OR OBSTRUCTIONS TO VISIBILITY.

NYZ071-072-176-178-NJZ106-104-240200-
NEW YORK CITY METRO AREA

CITY           SKY/WX    TMP DP  RH WIND       PRES   REMARKS
Central Park   LGT RAIN  77  75  93 VRB3      29.67S
Bronx Bot Gard   N/A     73  70  88 CALM      29.65S
LaGuardia APRT LGT RAIN  77  74  90 S9        29.63S
Kennedy INTL   MOCLDY    73  71  93 S18       29.65F
Breezy Point     N/A     66 N/A N/A S10         N/A
Newark/Liberty MOCLDY    77  75  93 S5        29.63F
Teterboro      LGT RAIN  80  75  84 SW10      29.62S
$$

NYZ177-179-078>081-240200-
LONG ISLAND NEW YORK

CITY           SKY/WX    TMP DP  RH WIND       PRES   REMARKS
Jones Beach      N/A     70 N/A N/A S12G21      N/A
Matinecock PT  NOT AVBL
Farmingdale    NOT AVBL
MacArthur/ISP  CLOUDY    74  71  91 SW15G24   29.65F
Shirley        CLOUDY    73  71  93 S15G23    29.67S
Mt Sinai Harb    N/A     75 N/A N/A S14G20      N/A
Westhampton    CLOUDY    71  68  90 SW9G18    29.69S
East Hampton   CLOUDY    70  68  93 SW12G17   29.68S
Montauk          N/A     69  68  96 SW8       29.69S
$$

NYZ052-065-067-240200-
HUDSON VALLEY

CITY           SKY/WX    TMP DP  RH WIND       PRES   REMARKS
White Plains   NOT AVBL
Larchmont Harb   N/A     72 N/A N/A S9          N/A
Croton O-T Hud   N/A     79 N/A N/A S3          N/A
Newburgh       NOT AVBL
Montgomery     CLOUDY    76  73  91 SW9       29.62S
Poughkeepsie   CLOUDY    79  70  74 S8        29.59F
Albany         CLOUDY    78  70  76 S9        29.57S
$$

NJZ001-105-106-008-010-013-015-019>022-104-240200-
NEW JERSEY

CITY           SKY/WX    TMP DP  RH WIND       PRES   REMARKS
Newark/Liberty MOCLDY    77  75  93 S5        29.63F
Teterboro      LGT RAIN  80  75  84 SW10      29.62S
Caldwell       CLOUDY    78  74  87 SW3       29.64S
Somerville     PTCLDY    75  75 100 CALM      29.63S
Linden         FAIR      78  74  87 CALM      29.64F
Perth Amboy      N/A     82 N/A N/A SW16        N/A
Sussex         LGT RAIN  74  73  97 SW3       29.64S
Andover          N/A     73  71  93 CALM      29.65S
Trenton        MOCLDY    82  72  71 SW14G24   29.66S
Millville      CLEAR     82  76  81 SW6       29.70R
Atlantic City  CLEAR     76  71  85 S6        29.71
Wrightstown    PTCLDY    81  73  76 SW12      29.66R
Toms River     PTCLDY    79  74  84 S7        29.69R
Belmar         MOCLDY    82  72  71 SW13G18   29.68R
$$

PAZ047>061-062-071-240200-
EASTERN PENNSYLVANIA

CITY           SKY/WX    TMP DP  RH WIND       PRES   REMARKS
Philadelphia   CLOUDY    84  72  67 SW15G26   29.67S
Allentown      RAIN      75  71  87 NW8       29.66R FOG
Scranton       LGT RAIN  78  70  76 SW10G20   29.63S
$$

CTZ002-004>006-009-010-012-RIZ004-006-007-MAZ004-011-015-240200-
SOUTHERN NEW ENGLAND
 IN CT

CITY           SKY/WX    TMP DP  RH WIND       PRES   REMARKS
Bradley INTL   CLOUDY    77  71  82 S12       29.62R
Hartford       CLOUDY    77  71  82 S10       29.61F
Danbury        CLOUDY    76  73  91 S6        29.65S
Wtrbury/Oxford LGT RAIN  73  68  83 SW9       29.67S
Bridgeport     CLOUDY    75  68  78 SW8       29.64R
Meriden        CLOUDY    75  70  84 S10       29.64S
New Haven      CLOUDY    73  70  88 W5        29.65S
Chester        FAIR      73  72  94 S7        29.67S
Groton         PTCLDY    70  68  93 SW8       29.66F
Wilimantic     PTCLDY    78  71  79 S9        29.65R

 IN RI

CITY           SKY/WX    TMP DP  RH WIND       PRES   REMARKS
Providence     CLOUDY    73  71  93 SW13G22   29.65F
Block Island   CLOUDY    67  66  97 SW17G25   29.69S
Westerly       CLOUDY    71  68  90 SW9       29.67F
 IN MA

CITY           SKY/WX    TMP DP  RH WIND       PRES   REMARKS
Boston         CLOUDY    75  69  81 S15       29.60S
Worcester      PTCLDY    72  68  87 SW15      29.65R
Westfield      CLEAR     78  72  81 S10         N/A
Provincetown   CLOUDY    68  65  90 SW20G28   29.66S
Nantucket      MOCLDY    65  64  97 S17       29.72F
$$

ANZ330-335-338-340-345-350-353-355-240200-
COASTAL MARINE OBSERVATIONS


STATION/POSITION TIME  SKY/WX   TEMP    WIND        PRES    VSBY  WAVE
                                AIR SEA DIR/SP/G                  HT/PER
                 (UTC)          (F)     (DEG/KT/KT) (MB)    (MI)  (FT/S)
NY HARB ENTRANCE 2350            68 66  200/ 17/ 21 1003.9          5/ 6
20 S FIRE ISLAND 2350            71 69  210/ 19/ 25 1004.1          6/ 6
GREAT SOUTH BAY  0030            73 76  210/ 17/ 23   N/A
23 SSW MONTAUK P 2350            68 64              1005.3          5/ 5
15 E BARNEGAT LI 0030               64                N/A           6/ 6
HUDSON CANYON    2350            71 67  210/ 19/ 21 1006.6          6/ 6
KINGS POINT      0030            73 66  210/ 12/ 14 1003.2
EXECUTION ROCKS  0045            73     190/  8/ 10   N/A
CENTRAL LI SOUND NOT AVBL
EASTERN LI SOUND NOT AVBL
ROBBINS REEF     0024                   170/  9/ 10 1004.2
$$


>>>>>>>>>>>>>>>>>>>>>>>>>>>> KEY <<<<<<<<<<<<<<<<<<<<<<<<<<<
>                                                          <
>     SKY/WX - Sky Condition/Present Weather               <
>     TMP    - Temperature in Fahrenheit                   <
>     DP     - Dew Point in Fahrenheit                     <
>     RH     - Relative Humidity in Percent                <
>     WIND   - Direction (from) and Speed in MPH           <
>     PRES   - Mean Sea Level Pressure (inches of Hg)      <
>     WCI    - Wind Chill Index                            <
>     VSB    - VISIBILITY IN MILES                         <
>     HX     - HEAT INDEX                                  <
>     TC     - TEMPERATURE IN CELSIUS                      <
>     VRB    - VARIABLE WIND DIRECTION                     <
>                                                          <
>>>>>>>>>>>>>>>>>>>>>>>>>>>> KEY <<<<<<<<<<<<<<<<<<<<<<<<<<<



USA.gov is the U.S. government's official web portal to all federal, state and local government web resources and services.